Location: Puketoi
(40.5833°S, 176.0167°E)
Time: 16:15:14
(UTC+00:00)

PAYLOAD A - Pass Details

Date: 24 September 2023
Orbit: 692 x 830 km, 98.5° (Epoch: 01 December)

Event Time Altitude Azimuth Distance (km) Brightness Sun altitude
Exits shadow 14:42:38 25° 177° (S) 1,622 5.9 -36.0°
Drops below altitude 10° 14:44:56 10° 185° (S) 2,465 6.9 -35.6°
Sets 14:47:22 0° 189° (S) 3,411 7.7 -35.3°
